GW6304 Weather Reports


time (UTC)temp
C
wind
direction
speed
KPH
gust
KPH
rain 1hr
cm
rain 24hr
cm
rain mn
cm
humidity
%
barometer
mb
20260906030027 27 89 0.0 3.2 0.00 0.00 0.00 67 1012.8
20260906025518 27 89 0.0 3.2 0.00 0.00 0.00 67 1012.7
20260906025017 27 89 1.6 3.2 0.00 0.00 0.00 67 1012.6
20260906024530 27 18 0.0 1.6 0.00 0.00 0.00 66 1012.6
20260906024016 27 58 0.0 0.0 0.00 0.00 0.00 66 1012.5
20260906023517 27 58 0.0 3.2 0.00 0.00 0.00 65 1012.3
20260906023042 27 58 0.0 3.2 0.00 0.00 0.00 66 1012.3
20260906022515 28 58 0.0 3.2 0.00 0.00 0.00 63 1012.3
20260906022021 28 360 0.0 4.8 0.00 0.00 0.00 64 1012.4
20260906021532 27 339 3.2 4.8 0.00 0.00 0.00 64 1012.3
20260906021020 27 97 1.6 4.8 0.00 0.00 0.00 65 1012.3
20260906020512 27 18 1.6 3.2 0.00 0.00 0.00 65 1011.8
20260906020023 27 167 0.0 3.2 0.00 0.00 0.00 64 1011.6
20260906015513 27 167 0.0 3.2 0.00 0.00 0.00 64 1011.4
20260906015015 27 167 0.0 3.2 0.00 0.00 0.00 63 1011.4
20260906014528 28 167 0.0 3.2 0.00 0.00 0.00 63 1011.4
20260906014015 28 167 0.0 3.2 0.00 0.00 0.00 62 1011.5
20260906013516 28 89 0.0 3.2 0.00 0.00 0.00 60 1011.5
20260906013046 28 79 0.0 3.2 0.00 0.00 0.00 59 1011.5
20260906012520 28 79 0.0 3.2 0.00 0.00 0.00 59 1011.7
20260906012020 29 79 0.0 3.2 0.00 0.00 0.00 59 1011.8
20260906011540 29 93 0.0 4.8 0.00 0.00 0.00 57 1011.8
20260906011018 29 66 0.0 4.8 0.00 0.00 0.00 57 1011.7
20260906010517 29 164 1.6 4.8 0.00 0.00 0.00 56 1011.7
20260906010039 29 197 0.0 3.2 0.00 0.00 0.00 57 1011.7
20260906005514 29 168 1.6 3.2 0.00 0.00 0.00 58 1011.8
20260906005013 29 184 0.0 3.2 0.00 0.00 0.00 58 1011.7
20260906004525 29 89 0.0 3.2 0.00 0.00 0.00 57 1011.6
20260906004012 30 104 1.6 3.2 0.00 0.00 0.00 57 1011.6
20260906003516 30 79 1.6 3.2 0.00 0.00 0.00 56 1011.8
20260906003030 30 84 1.6 4.8 0.00 0.00 0.00 55 1011.9
20260906002517 30 103 1.6 8.0 0.00 0.00 0.00 54 1011.8
20260906002018 30 85 0.0 16.1 0.00 0.00 0.00 54 1012.1
20260906001535 31 89 4.8 16.1 0.00 0.00 0.00 52 1012.1
20260906001016 31 56 6.4 16.1 0.00 0.00 0.00 54 1012.0
20260906000516 32 39 1.6 6.4 0.00 0.00 0.00 55 1011.9
20260906000049 33 76 1.6 3.2 0.00 0.00 0.00 55 1011.9
20260905235510 33 22 0.0 3.2 0.00 0.00 0.00 54 1011.5
20260905235015 33 110 0.0 3.2 0.00 0.00 0.00 53 1011.4
20260905234523 33 110 0.0 4.8 0.00 0.00 0.00 52 1011.4
20260905234014 33 110 1.6 4.8 0.00 0.00 0.00 51 1011.3
20260905233514 34 84 1.6 3.2 0.00 0.00 0.00 50 1011.4
20260905233025 35 107 1.6 9.7 0.00 0.00 0.00 49 1011.3
20260905232513 35 343 0.0 9.7 0.00 0.00 0.00 46 1011.1
20260905232016 36 264 4.8 9.7 0.00 0.00 0.00 44 1011.2
20260905231530 36 267 1.6 6.4 0.00 0.00 0.00 42 1011.1
20260905231016 36 255 3.2 8.0 0.00 0.00 0.00 42 1011.1
20260905230515 36 251 1.6 8.0 0.00 0.00 0.00 42 1011.0
20260905230010 36 341 3.2 8.0 0.00 0.00 0.00 42 1011.0
20260905225511 36 265 3.2 8.0 0.00 0.00 0.00 41 1011.1
20260905225010 36 324 0.0 9.7 0.00 0.00 0.00 40 1011.1
20260905224518 37 239 3.2 8.0 0.00 0.00 0.00 39 1011.1
20260905224013 37 264 1.6 6.4 0.00 0.00 0.00 40 1011.2
20260905223513 37 293 1.6 9.7 0.00 0.00 0.00 40 1011.2
20260905223025 37 301 3.2 11.3 0.00 0.00 0.00 40 1011.3
20260905222515 37 320 3.2 11.3 0.00 0.00 0.00 40 1011.2
20260905222015 37 320 1.6 12.9 0.00 0.00 0.00 40 1011.2
20260905221532 37 270 4.8 14.5 0.00 0.00 0.00 40 1011.2
20260905221017 37 265 4.8 14.5 0.00 0.00 0.00 39 1011.1
20260905220518 37 266 3.2 16.1 0.00 0.00 0.00 41 1011.1
20260905220030 37 342 4.8 16.1 0.00 0.00 0.00 41 1011.1
20260905215517 37 311 4.8 14.5 0.00 0.00 0.00 41 1011.2
20260905215008 37 326 6.4 14.5 0.00 0.00 0.00 41 1011.2
20260905214518 37 250 9.7 14.5 0.00 0.00 0.00 41 1011.1
20260905214010 37 261 3.2 14.5 0.00 0.00 0.00 40 1011.1
20260905213513 37 311 4.8 14.5 0.00 0.00 0.00 41 1011.1
20260905213023 37 254 4.8 16.1 0.00 0.00 0.00 40 1011.2
20260905212516 37 266 6.4 16.1 0.00 0.00 0.00 40 1011.3
20260905212013 37 229 4.8 14.5 0.00 0.00 0.00 41 1011.2
20260905211529 37 332 8.0 14.5 0.00 0.00 0.00 40 1011.3
20260905211015 37 280 6.4 16.1 0.00 0.00 0.00 40 1011.4
20260905210519 37 252 6.4 16.1 0.00 0.00 0.00 42 1011.3
20260905210031 37 303 6.4 14.5 0.00 0.00 0.00 42 1011.5
20260905205503 37 246 0.0 11.3 0.00 0.00 0.00 42 1011.6
20260905205004 37 316 3.2 11.3 0.00 0.00 0.00 41 1011.6
20260905204508 37 311 3.2 11.3 0.00 0.00 0.00 42 1011.5
20260905204003 37 311 6.4 11.3 0.00 0.00 0.00 43 1011.6
20260905203504 37 231 1.6 9.7 0.00 0.00 0.00 44 1011.7
20260905203004 37 343 1.6 12.9 0.00 0.00 0.00 42 1011.8
20260905202502 37 303 4.8 12.9 0.00 0.00 0.00 43 1012.0
20260905202003 37 357 3.2 11.3 0.00 0.00 0.00 42 1012.0
20260905201508 37 195 4.8 19.3 0.00 0.00 0.00 43 1012.1
20260905201001 37 303 11.3 19.3 0.00 0.00 0.00 42 1012.1
20260905200506 37 287 6.4 14.5 0.00 0.00 0.00 44 1012.2
20260905200006 37 215 3.2 14.5 0.00 0.00 0.00 45 1012.4
20260905195502 37 238 6.4 14.5 0.00 0.00 0.00 43 1012.6
20260905195008 37 195 3.2 12.9 0.00 0.00 0.00 43 1012.6
20260905194504 37 264 4.8 12.9 0.00 0.00 0.00 44 1012.6
20260905194003 37 328 4.8 12.9 0.00 0.00 0.00 43 1012.6
20260905193502 37 349 6.4 12.9 0.00 0.00 0.00 44 1012.7
20260905193007 37 311 6.4 12.9 0.00 0.00 0.00 44 1012.7
20260905192504 37 8 3.2 9.7 0.00 0.00 0.00 44 1012.7
20260905192007 36 303 3.2 12.9 0.00 0.00 0.00 45 1012.8
20260905191504 36 232 6.4 16.1 0.00 0.00 0.00 44 1012.8
20260905191004 37 176 6.4 16.1 0.00 0.00 0.00 43 1012.9
20260905190503 37 238 3.2 11.3 0.00 0.00 0.00 44 1012.9
20260905190006 36 303 3.2 11.3 0.00 0.00 0.00 44 1013.0
20260905185505 36 43 3.2 9.7 0.00 0.00 0.00 45 1013.1
20260905185002 36 276 1.6 16.1 0.00 0.00 0.00 44 1013.2
20260905184511 36 301 6.4 16.1 0.00 0.00 0.00 43 1013.2
20260905184003 36 234 4.8 12.9 0.00 0.00 0.00 44 1013.4
20260905183503 36 316 4.8 8.0 0.00 0.00 0.00 45 1013.4
20260905183014 36 217 1.6 8.0 0.00 0.00 0.00 46 1013.5
20260905182503 36 351 6.4 9.7 0.00 0.00 0.00 46 1013.7
20260905182006 36 311 4.8 12.9 0.00 0.00 0.00 46 1013.8
20260905181508 36 238 3.2 12.9 0.00 0.00 0.00 45 1013.8
20260905181006 36 276 4.8 12.9 0.00 0.00 0.00 47 1013.8
20260905180507 36 328 4.8 12.9 0.00 0.00 0.00 45 1013.9
20260905180004 36 251 6.4 11.3 0.00 0.00 0.00 45 1013.9
20260905175503 36 303 6.4 12.9 0.00 0.00 0.00 46 1013.9
20260905175004 36 250 4.8 12.9 0.00 0.00 0.00 47 1014.0
20260905174509 36 149 1.6 6.4 0.00 0.00 0.00 46 1014.1
20260905174006 36 91 1.6 6.4 0.00 0.00 0.00 48 1014.1
20260905173506 36 226 1.6 6.4 0.00 0.00 0.00 50 1014.1
20260905173009 36 107 1.6 6.4 0.00 0.00 0.00 49 1014.1
20260905172503 35 320 3.2 4.8 0.00 0.00 0.00 48 1014.1
20260905172003 35 266 1.6 9.7 0.00 0.00 0.00 48 1014.1
20260905171508 35 110 1.6 9.7 0.00 0.00 0.00 49 1014.2
20260905171008 35 337 3.2 9.7 0.00 0.00 0.00 49 1014.3
20260905170504 35 333 3.2 8.0 0.00 0.00 0.00 49 1014.3
20260905170008 35 298 3.2 8.0 0.00 0.00 0.00 49 1014.4
20260905165506 35 268 3.2 6.4 0.00 0.00 0.00 51 1014.4
20260905165002 35 291 3.2 6.4 0.00 0.00 0.00 53 1014.4
20260905164505 34 360 1.6 4.8 0.00 0.00 0.00 52 1014.4
20260905164004 34 279 1.6 9.7 0.00 0.00 0.00 51 1014.6
20260905163510 34 355 1.6 9.7 0.00 0.00 0.00 53 1014.6
20260905163007 33 320 1.6 6.4 0.00 0.00 0.00 54 1014.7
20260905162504 33 201 1.6 8.0 0.00 0.00 0.00 56 1014.7
20260905162005 33 228 4.8 8.0 0.00 0.00 0.00 55 1014.8
20260905161510 33 341 1.6 8.0 0.00 0.00 0.00 56 1014.9
20260905161006 32 235 1.6 8.0 0.00 0.00 0.00 57 1015.0
20260905160503 32 28 1.6 9.7 0.00 0.00 0.00 57 1015.1
20260905160009 32 202 1.6 11.3 0.00 0.00 0.00 61 1015.1
20260905155508 32 316 3.2 11.3 0.00 0.00 0.00 61 1015.2
20260905155008 32 246 4.8 8.0 0.00 0.00 0.00 62 1015.2
20260905154509 31 194 3.2 6.4 0.00 0.00 0.00 62 1015.2
20260905154003 31 5 3.2 6.4 0.00 0.00 0.00 64 1015.3
20260905153506 31 268 3.2 8.0 0.00 0.00 0.00 67 1015.4
20260905153007 31 250 4.8 8.0 0.00 0.00 0.00 69 1015.4
20260905152507 31 239 1.6 6.4 0.00 0.00 0.00 69 1015.4
20260905152010 30 197 1.6 6.4 0.00 0.00 0.00 70 1015.4
20260905151510 30 209 1.6 6.4 0.00 0.00 0.00 72 1015.4
20260905151010 30 245 3.2 6.4 0.00 0.00 0.00 72 1015.4
20260905150507 29 235 3.2 6.4 0.00 0.00 0.00 73 1015.4
20260905150010 29 253 1.6 4.8 0.00 0.00 0.00 73 1015.4
20260905145505 29 326 1.6 6.4 0.00 0.00 0.00 74 1015.5
20260905145010 29 16 1.6 6.4 0.00 0.00 0.00 76 1015.6
20260905144511 28 247 3.2 4.8 0.00 0.00 0.00 77 1015.6
20260905144007 28 264 0.0 4.8 0.00 0.00 0.00 77 1015.6
20260905143512 28 233 1.6 3.2 0.00 0.00 0.00 79 1015.6
20260905143008 28 156 0.0 3.2 0.00 0.00 0.00 80 1015.5
20260905142506 27 192 0.0 3.2 0.00 0.00 0.00 80 1015.6
20260905142006 27 264 1.6 3.2 0.00 0.00 0.00 81 1015.6
20260905141510 27 230 0.0 3.2 0.00 0.00 0.00 82 1015.7
20260905141009 27 230 1.6 3.2 0.00 0.00 0.00 84 1015.6
20260905140506 27 262 0.0 1.6 0.00 0.00 0.00 84 1015.7
20260905140012 26 262 0.0 3.2 0.00 0.00 0.00 83 1015.7
20260905135507 26 262 0.0 3.2 0.00 0.00 0.00 84 1015.7
20260905135010 26 262 0.0 3.2 0.00 0.00 0.00 84 1015.7
20260905134511 26 262 0.0 3.2 0.00 0.00 0.00 84 1015.7
20260905134009 26 262 0.0 3.2 0.00 0.00 0.00 84 1015.6
20260905133507 26 262 0.0 3.2 0.00 0.00 0.00 85 1015.6
20260905133017 26 268 0.0 3.2 0.00 0.00 0.00 85 1015.7
20260905132508 26 268 0.0 3.2 0.00 0.00 0.00 85 1015.8
20260905132005 26 270 0.0 3.2 0.00 0.00 0.00 85 1015.8
20260905131510 26 303 0.0 3.2 0.00 0.00 0.00 86 1015.8
20260905131007 25 311 0.0 1.6 0.00 0.00 0.00 85 1015.8
20260905130510 25 4 0.0 0.0 0.00 0.00 0.00 86 1015.7
20260905130017 25 4 0.0 3.2 0.00 0.00 0.00 85 1015.8
20260905125510 25 4 0.0 3.2 0.00 0.00 0.00 85 1015.8
20260905125010 25 4 0.0 0.0 0.00 0.00 0.00 85 1015.8
20260905124514 25 4 0.0 0.0 0.00 0.00 0.00 85 1015.8
20260905124010 25 4 0.0 0.0 0.00 0.00 0.00 86 1015.8
20260905123508 25 4 0.0 0.0 0.00 0.00 0.00 86 1015.7
20260905123014 25 4 0.0 0.0 0.00 0.00 0.00 87 1015.7
20260905122510 24 4 0.0 0.0 0.00 0.00 0.00 87 1015.6
20260905122010 24 4 0.0 0.0 0.00 0.00 0.00 87 1015.6
20260905121515 24 4 0.0 0.0 0.00 0.00 0.00 87 1015.5
20260905121012 24 4 0.0 0.0 0.00 0.00 0.00 88 1015.5
20260905120506 23 4 0.0 0.0 0.00 0.00 0.00 88 1015.5
20260905120014 23 4 0.0 0.0 0.00 0.00 0.00 89 1015.4
20260905115510 23 4 0.0 0.0 0.00 0.00 0.00 89 1015.4
20260905115010 23 4 0.0 0.0 0.00 0.00 0.00 89 1015.4
20260905114518 23 4 0.0 0.0 0.00 0.00 0.00 89 1015.4
20260905114010 23 4 0.0 0.0 0.00 0.00 0.00 89 1015.3
20260905113511 23 4 0.0 0.0 0.00 0.00 0.00 88 1015.2
20260905113019 23 4 0.0 3.2 0.00 0.00 0.00 88 1015.1
20260905112509 23 4 0.0 3.2 0.00 0.00 0.00 88 1015.0
20260905112010 23 4 0.0 3.2 0.00 0.00 0.00 88 1014.9
20260905111530 23 4 0.0 3.2 0.00 0.00 0.00 88 1014.8
20260905111010 23 4 0.0 3.2 0.00 0.00 0.00 88 1014.7
20260905110510 23 4 0.0 0.0 0.00 0.00 0.00 88 1014.6
20260905110033 23 4 0.0 0.0 0.00 0.00 0.00 88 1014.6
20260905105507 23 4 0.0 0.0 0.00 0.00 0.00 88 1014.4
20260905105009 23 4 0.0 0.0 0.00 0.00 0.00 88 1014.3
20260905104519 23 4 0.0 0.0 0.00 0.00 0.00 88 1014.2
20260905104010 23 4 0.0 0.0 0.00 0.00 0.00 87 1014.4
20260905103510 23 4 0.0 0.0 0.00 0.00 0.00 88 1014.4
20260905103020 23 4 0.0 0.0 0.00 0.00 0.00 88 1014.4
20260905102516 23 4 0.0 3.2 0.00 0.00 0.00 88 1014.3
20260905102011 23 4 0.0 3.2 0.00 0.00 0.00 88 1014.3
20260905101520 23 4 0.0 0.0 0.00 0.00 0.00 87 1014.3
20260905101009 23 4 0.0 0.0 0.00 0.00 0.00 87 1014.3
20260905100510 23 4 0.0 0.0 0.00 0.00 0.00 88 1014.2
20260905100021 23 4 0.0 0.0 0.00 0.00 0.00 88 1014.2
20260905095516 23 4 0.0 0.0 0.00 0.00 0.00 87 1014.1
20260905095012 23 4 0.0 0.0 0.00 0.00 0.00 87 1014.1
20260905094622 23 4 0.0 0.0 0.00 0.00 0.00 87 1014.2
20260905094011 23 4 0.0 0.0 0.00 0.00 0.00 87 1014.1
20260905093510 23 4 0.0 0.0 0.00 0.00 0.00 87 1014.1
20260905093025 23 4 0.0 0.0 0.00 0.00 0.00 87 1014.0
20260905092513 23 4 0.0 0.0 0.00 0.00 0.00 86 1013.9
20260905092012 23 4 0.0 0.0 0.00 0.00 0.00 86 1013.8
20260905091521 24 4 0.0 0.0 0.00 0.00 0.00 86 1014.0
20260905091011 24 4 0.0 1.6 0.00 0.00 0.00 86 1013.9
20260905090511 24 4 0.0 3.2 0.00 0.00 0.00 86 1014.0
20260905090024 24 4 0.0 3.2 0.00 0.00 0.00 86 1014.0
20260905085514 24 4 0.0 3.2 0.00 0.00 0.00 86 1014.0
20260905085011 24 4 0.0 0.0 0.00 0.00 0.00 86 1014.0
20260905084523 24 4 0.0 0.0 0.00 0.00 0.00 86 1014.1
20260905084011 24 4 0.0 0.0 0.00 0.00 0.00 86 1013.9
20260905083514 24 4 0.0 0.0 0.00 0.00 0.00 85 1014.1
20260905083016 24 4 0.0 0.0 0.00 0.00 0.00 85 1014.1
20260905082510 24 4 0.0 0.0 0.00 0.00 0.00 85 1014.1
20260905082014 24 4 0.0 0.0 0.00 0.00 0.00 85 1014.1
20260905081524 24 4 0.0 0.0 0.00 0.00 0.00 85 1014.1
20260905081011 24 4 0.0 0.0 0.00 0.00 0.00 85 1013.9
20260905080512 24 4 0.0 0.0 0.00 0.00 0.00 85 1014.0
20260905080036 24 4 0.0 0.0 0.00 0.00 0.00 84 1014.0
20260905075515 25 4 0.0 0.0 0.00 0.00 0.00 84 1014.1
20260905075015 25 4 0.0 3.2 0.00 0.00 0.00 84 1014.0
20260905074526 25 4 0.0 1.6 0.00 0.00 0.00 84 1014.1
20260905074013 25 4 0.0 1.6 0.00 0.00 0.00 84 1014.1
20260905073512 24 4 0.0 0.0 0.00 0.00 0.00 84 1014.1
20260905073027 25 4 0.0 0.0 0.00 0.00 0.00 84 1014.2
20260905072512 25 4 0.0 0.0 0.00 0.00 0.00 1014.2
20260905072015 25 4 0.0 0.0 0.00 0.00 0.00 1014.2
20260905071526 25 4 0.0 3.2 0.00 0.00 0.00 1014.3
20260905071013 25 4 0.0 3.2 0.00 0.00 0.00 1014.3
20260905070515 25 4 0.0 0.0 0.00 0.00 0.00 1014.1
20260905070028 25 4 0.0 0.0 0.00 0.00 0.00 1014.3
20260905065517 25 4 0.0 0.0 0.00 0.00 0.00 1014.3
20260905065014 25 4 0.0 0.0 0.00 0.00 0.00 1014.3
20260905064529 25 4 0.0 0.0 0.00 0.00 0.00 83 1014.4
20260905064016 25 4 0.0 0.0 0.00 0.00 0.00 83 1014.4
20260905063513 25 4 0.0 3.2 0.00 0.00 0.00 83 1014.3
20260905063027 25 4 0.0 3.2 0.00 0.00 0.00 83 1014.4
20260905062516 25 4 0.0 3.2 0.00 0.00 0.00 82 1014.4
20260905062013 25 4 0.0 3.2 0.00 0.00 0.00 82 1014.3
20260905061532 25 4 0.0 3.2 0.00 0.00 0.00 82 1014.5
20260905061013 25 137 0.0 3.2 0.00 0.00 0.00 81 1014.4
20260905060512 25 137 0.0 0.0 0.00 0.00 0.00 1014.4
20260905060029 25 137 0.0 0.0 0.00 0.00 0.00 81 1014.4
20260905055513 25 137 0.0 3.2 0.00 0.00 0.00 81 1014.5
20260905055015 25 137 0.0 3.2 0.00 0.00 0.00 81 1014.4
20260905054529 25 137 0.0 3.2 0.00 0.00 0.00 81 1014.4
20260905054014 25 137 0.0 0.0 0.00 0.00 0.00 81 1014.4
20260905053517 25 137 0.0 0.0 0.00 0.00 0.00 80 1014.6
20260905053027 25 137 0.0 0.0 0.00 0.00 0.00 80 1014.5
20260905052516 26 137 0.0 0.0 0.00 0.00 0.00 80 1014.6
20260905052017 26 137 0.0 0.0 0.00 0.00 0.00 80 1014.6
20260905051541 26 137 0.0 0.0 0.00 0.00 0.00 79 1014.4
20260905051013 26 137 0.0 3.2 0.00 0.00 0.00 79 1014.3
20260905050515 26 145 0.0 3.2 0.00 0.00 0.00 78 1014.4
20260905050026 26 145 0.0 3.2 0.00 0.00 0.00 79 1014.3
20260905045515 26 58 0.0 3.2 0.00 0.00 0.00 79 1014.3
20260905045017 26 58 0.0 0.0 0.00 0.00 0.00 79 1014.4
20260905044536 26 57 0.0 0.0 0.00 0.00 0.00 78 1014.6
20260905044015 26 58 0.0 3.2 0.00 0.00 0.00 78 1014.6
20260905043514 26 58 0.0 3.2 0.00 0.00 0.00 77 1014.5
20260905043028 26 58 0.0 3.2 0.00 0.00 0.00 77 1014.7
20260905042520 26 97 0.0 3.2 0.00 0.00 0.00 77 1014.6
20260905042016 26 97 0.0 1.6 0.00 0.00 0.00 77 1014.4
20260905041531 26 97 0.0 0.0 0.00 0.00 0.00 77 1014.5
20260905041017 26 97 0.0 0.0 0.00 0.00 0.00 77 1014.6
20260905040517 26 97 0.0 0.0 0.00 0.00 0.00 76 1014.7
20260905040032 26 97 0.0 0.0 0.00 0.00 0.00 76 1014.6
20260905035518 27 97 0.0 0.0 0.00 0.00 0.00 75 1014.7
20260905035020 27 97 0.0 0.0 0.00 0.00 0.00 75 1014.8
20260905034533 27 97 0.0 0.0 0.00 0.00 0.00 75 1015.0
20260905034016 27 97 0.0 0.0 0.00 0.00 0.00 75 1014.9
20260905033519 27 97 0.0 0.0 0.00 0.00 0.00 75 1015.0
20260905033103 27 97 0.0 0.0 0.00 0.00 0.00 74 1015.0
20260905032519 27 97 0.0 0.0 0.00 0.00 0.00 74 1015.0
20260905032017 27 97 0.0 0.0 0.00 0.00 0.00 74 1014.9
20260905031535 27 97 0.0 0.0 0.00 0.00 0.00 73 1015.0
20260905031017 27 97 0.0 0.0 0.00 0.00 0.00 73 1015.0
20260905030517 27 97 0.0 0.0 0.00 0.00 0.00 73 1015.2